• In Latvia
  • List of Countries
  • For 7 days
  • Water Temperature
  • Satellite Maps
  • Weather Map
  • Weather Widgets
  • user-avatar
    Login

    Hourly Weather Pavilosta

    Today, 20 February, Tuesday

    Time Temperature Precipitation Wind Pressure Humidity
    00:00 -5°C° 0.1 mm 4 mps 767 mmHg 92%
    01:00 -8°C° 0 mm 4 mps 767 mmHg 90%
    02:00 -8°C° 0 mm 4 mps 767 mmHg 91%
    03:00 -7°C° 0 mm 3 mps 767 mmHg 91%
    04:00 -8°C° 0 mm 3 mps 767 mmHg 91%
    05:00 -8°C° 0 mm 3 mps 767 mmHg 91%
    06:00 -8°C° 0 mm 3 mps 767 mmHg 90%
    07:00 -8°C° 0 mm 3 mps 767 mmHg 89%
    08:00 -7°C° 0 mm 3 mps 767 mmHg 86%
    09:00 -6°C° 0 mm 3 mps 768 mmHg 82%
    10:00 -6°C° 0 mm 3 mps 768 mmHg 79%
    11:00 -5°C° 0 mm 3 mps 768 mmHg 77%
    12:00 -5°C° 0 mm 3 mps 768 mmHg 75%
    13:00 -4°C° 0 mm 3 mps 768 mmHg 73%
    14:00 -4°C° 0 mm 2 mps 768 mmHg 74%
    15:00 -4°C° 0 mm 2 mps 768 mmHg 75%
    16:00 -4°C° 0 mm 2 mps 768 mmHg 76%
    17:00 -5°C° 0 mm 2 mps 768 mmHg 79%
    18:00 -5°C° 0 mm 2 mps 768 mmHg 82%
    19:00 -7°C° 0 mm 3 mps 768 mmHg 85%
    20:00 -6°C° 0 mm 2 mps 768 mmHg 86%
    21:00 -7°C° 0 mm 2 mps 768 mmHg 87%
    22:00 -7°C° 0 mm 2 mps 768 mmHg 88%
    23:00 -8°C° 0 mm 2 mps 768 mmHg 89%

    Tomorrow, 21 February, Wednesday

    Time Temperature Precipitation Wind Pressure Humidity
    00:00 -8°C° 0 mm 2 mps 768 mmHg 90%
    01:00 -7°C° 0 mm 1 mps 768 mmHg 90%
    02:00 -7°C° 0 mm 1 mps 768 mmHg 90%
    03:00 -8°C° 0 mm 1 mps 768 mmHg 90%
    04:00 -8°C° 0 mm 1 mps 768 mmHg 89%
    05:00 -9°C° 0 mm 2 mps 767 mmHg 88%
    06:00 -9°C° 0 mm 2 mps 767 mmHg 87%
    07:00 -9°C° 0 mm 2 mps 767 mmHg 86%
    08:00 -8°C° 0.1 mm 2 mps 767 mmHg 81%
    09:00 -7°C° 0.1 mm 2 mps 767 mmHg 77%
    10:00 -6°C° 0.1 mm 2 mps 767 mmHg 73%
    11:00 -6°C° 0.1 mm 2 mps 767 mmHg 71%
    12:00 -5°C° 0.1 mm 2 mps 768 mmHg 70%
    13:00 -5°C° 0.1 mm 2 mps 768 mmHg 68%
    14:00 -5°C° 0 mm 2 mps 768 mmHg 70%
    15:00 -5°C° 0 mm 2 mps 768 mmHg 72%
    16:00 -6°C° 0 mm 2 mps 768 mmHg 74%
    17:00 -7°C° 0 mm 3 mps 768 mmHg 78%
    18:00 -8°C° 0 mm 3 mps 768 mmHg 82%
    19:00 -9°C° 0 mm 3 mps 768 mmHg 85%
    20:00 -10°C° 0 mm 3 mps 769 mmHg 86%
    21:00 -10°C° 0 mm 3 mps 769 mmHg 88%
    22:00 -12°C° 0 mm 3 mps 769 mmHg 89%
    23:00 -12°C° 0 mm 3 mps 770 mmHg 89%

    Day after tomorrow, 22 February, Thursday

    Time Temperature Precipitation Wind Pressure Humidity
    00:00 -12°C° 0 mm 3 mps 770 mmHg 89%
    01:00 -12°C° 0 mm 3 mps 770 mmHg 89%
    02:00 -10°C° 0 mm 2 mps 770 mmHg 90%
    03:00 -12°C° 0 mm 2 mps 770 mmHg 90%
    04:00 -12°C° 0 mm 2 mps 770 mmHg 91%
    05:00 -12°C° 0 mm 2 mps 770 mmHg 91%
    06:00 -12°C° 0 mm 2 mps 770 mmHg 91%
    07:00 -12°C° 0 mm 2 mps 771 mmHg 92%
    08:00 -10°C° 0 mm 2 mps 771 mmHg 86%
    09:00 -9°C° 0 mm 2 mps 771 mmHg 81%
    10:00 -8°C° 0 mm 2 mps 771 mmHg 75%
    11:00 -7°C° 0 mm 2 mps 771 mmHg 72%
    12:00 -7°C° 0 mm 2 mps 771 mmHg 69%
    13:00 -6°C° 0 mm 2 mps 771 mmHg 66%
    14:00 -6°C° 0 mm 2 mps 771 mmHg 68%
    15:00 -6°C° 0 mm 2 mps 771 mmHg 69%
    16:00 -7°C° 0 mm 2 mps 771 mmHg 71%
    17:00 -7°C° 0 mm 2 mps 771 mmHg 74%
    18:00 -8°C° 0 mm 2 mps 771 mmHg 78%
    19:00 -8°C° 0 mm 2 mps 771 mmHg 81%
    20:00 -8°C° 0 mm 1 mps 771 mmHg 83%
    21:00 -8°C° 0 mm 1 mps 771 mmHg 84%
    22:00 -9°C° 0 mm 1 mps 771 mmHg 86%
    23:00 -9°C° 0 mm 1 mps 771 mmHg 87%

    23 February, Friday

    Time Temperature Precipitation Wind Pressure Humidity
    00:00 -9°C° 0 mm 1 mps 771 mmHg 87%
    01:00 -9°C° 0 mm 1 mps 771 mmHg 88%
    02:00 -9°C° 0 mm 1 mps 770 mmHg 88%
    03:00 -9°C° 0 mm 1 mps 770 mmHg 88%
    04:00 -10°C° 0 mm 2 mps 769 mmHg 88%
    05:00 -10°C° 0.1 mm 2 mps 769 mmHg 88%
    06:00 -10°C° 0.1 mm 3 mps 769 mmHg 87%
    07:00 -11°C° 0.1 mm 4 mps 769 mmHg 87%
    08:00 -10°C° 0.2 mm 4 mps 769 mmHg 85%
    09:00 -9°C° 0.2 mm 4 mps 769 mmHg 83%
    10:00 -8°C° 0.2 mm 5 mps 769 mmHg 80%
    11:00 -9°C° 0.2 mm 6 mps 769 mmHg 77%
    12:00 -9°C° 0.2 mm 7 mps 769 mmHg 73%
    13:00 -8°C° 0.2 mm 8 mps 769 mmHg 70%
    14:00 -10°C° 0.1 mm 8 mps 769 mmHg 71%
    15:00 -11°C° 0.1 mm 8 mps 770 mmHg 72%
    16:00 -12°C° 0.1 mm 8 mps 770 mmHg 73%
    17:00 -12°C° 0 mm 8 mps 770 mmHg 75%
    18:00 -12°C° 0 mm 8 mps 771 mmHg 77%
    19:00 -13°C° 0 mm 8 mps 772 mmHg 80%
    20:00 -13°C° 0 mm 7 mps 772 mmHg 80%
    21:00 -13°C° 0 mm 7 mps 773 mmHg 80%
    22:00 -13°C° 0 mm 7 mps 773 mmHg 80%
    23:00 -13°C° 0 mm 7 mps 774 mmHg 81%

    24 February, Saturday

    Time Temperature Precipitation Wind Pressure Humidity
    00:00 -13°C° 0 mm 7 mps 774 mmHg 81%
    01:00 -14°C° 0 mm 7 mps 775 mmHg 81%
    02:00 -14°C° 0 mm 6 mps 775 mmHg 82%
    03:00 -14°C° 0 mm 6 mps 775 mmHg 82%
    04:00 -15°C° 0 mm 6 mps 775 mmHg 83%
    05:00 -15°C° 0 mm 7 mps 776 mmHg 83%
    06:00 -15°C° 0 mm 7 mps 776 mmHg 83%
    07:00 -15°C° 0 mm 7 mps 776 mmHg 82%
    08:00 -15°C° 0 mm 7 mps 777 mmHg 79%
    09:00 -14°C° 0 mm 7 mps 777 mmHg 75%
    10:00 -14°C° 0 mm 7 mps 777 mmHg 71%
    11:00 -13°C° 0 mm 7 mps 777 mmHg 70%
    12:00 -13°C° 0 mm 7 mps 777 mmHg 68%
    13:00 -13°C° 0 mm 7 mps 777 mmHg 67%
    14:00 -13°C° 0 mm 7 mps 777 mmHg 69%
    15:00 -14°C° 0 mm 7 mps 777 mmHg 71%
    16:00 -14°C° 0 mm 7 mps 777 mmHg 73%
    17:00 -14°C° 0 mm 7 mps 777 mmHg 75%
    18:00 -15°C° 0 mm 7 mps 777 mmHg 78%
    19:00 -15°C° 0 mm 7 mps 777 mmHg 80%
    20:00 -15°C° 0 mm 7 mps 778 mmHg 81%
    21:00 -15°C° 0 mm 6 mps 778 mmHg 82%
    22:00 -15°C° 0 mm 6 mps 778 mmHg 82%
    23:00 -16°C° 0 mm 6 mps 778 mmHg 83%

    25 February, Sunday

    Time Temperature Precipitation Wind Pressure Humidity
    00:00 -16°C° 0 mm 6 mps 778 mmHg 84%
    01:00 -17°C° 0 mm 6 mps 778 mmHg 84%
    02:00 -17°C° 0 mm 6 mps 778 mmHg 85%
    03:00 -17°C° 0 mm 6 mps 778 mmHg 85%
    04:00 -18°C° 0 mm 7 mps 778 mmHg 86%
    05:00 -18°C° 0 mm 7 mps 778 mmHg 85%
    06:00 -18°C° 0 mm 7 mps 778 mmHg 85%
    07:00 -18°C° 0 mm 7 mps 779 mmHg 84%
    08:00 -17°C° 0 mm 7 mps 779 mmHg 81%
    09:00 -15°C° 0 mm 7 mps 779 mmHg 77%
    10:00 -15°C° 0 mm 7 mps 779 mmHg 74%
    11:00 -14°C° 0 mm 7 mps 779 mmHg 72%
    12:00 -14°C° 0 mm 7 mps 778 mmHg 71%
    13:00 -13°C° 0 mm 7 mps 778 mmHg 70%
    14:00 -14°C° 0 mm 7 mps 778 mmHg 71%
    15:00 -14°C° 0 mm 7 mps 778 mmHg 72%
    16:00 -14°C° 0 mm 7 mps 777 mmHg 73%
    17:00 -14°C° 0 mm 7 mps 777 mmHg 75%
    18:00 -14°C° 0 mm 7 mps 778 mmHg 78%
    19:00 -14°C° 0 mm 7 mps 778 mmHg 80%
    20:00 -15°C° 0.1 mm 7 mps 778 mmHg 81%
    21:00 -15°C° 0.1 mm 7 mps 778 mmHg 83%
    22:00 -15°C° 0.1 mm 7 mps 778 mmHg 84%
    23:00 -15°C° 0.1 mm 6 mps 778 mmHg 85%
    Show more